sat.trackr.live / text

‹ back to catalog

KAZSAT-2

NORAD 37749 · 2011-035B

PAYLOAD ACTIVE UNKNOWN

§ Identity

Operator
Country
KAZ
Launch date
2011-07-15
Launch site
TYMSC
Launch vehicle
Mass (kg)
RCS (m²)
7.08

Purposes: comms

External: N2YO · Heavens-Above · Gunter

§ Orbital elements

Epoch: 2026-09-20T00:42:21.457728Z

Period
1,436.09 min
Inclination
0.0168°
Eccentricity
0.0001270
Mean motion
1.00271977 rev/d
Perigee alt
35,781.2 km
Apogee alt
35,791.9 km
Semi-major
42,164.7 km
B*
0.0000e+0
RAAN
347.8265°
Arg perigee
242.5162°
Mean anomaly
225.7147°
Rev number
5,435

§ Raw data

KAZSAT-21 37749U 11035B   26263.02941502 -.00000202  00000+0  00000+0 0  99952 37749   0.0168 347.8265 0001270 242.5162 225.7147  1.00271977 54353

JSON: /api/v1/satellites/37749 · /tle

For live sub-satellite position, see the globe view (requires WebGL).

§ Visibility from observer

Set your observer location to see the next 7 days of passes ≥ 10°. The values pass through the URL so the page stays shareable.

No JS? Fill the form by hand. The geolocation button needs JavaScript.